Find Starlink 3238

NORAD ID: 49734 Int'l Des: 2021-115 Owner: SPXS Country: US Constellation: starlink operational
LEOCIRCULAR

リアルタイム位置

3D地球を読み込み中...

Starlink 3238について

説明を読み込み中...

次回通過

Passes for default location (London). Set your location on the main map for personalized predictions.

高度履歴

Loading altitude history...

軌道要素

1 49734U 21115L 26125.76670999 .00000317 00000-0 38017-4 0 9990
2 49734 53.2183 252.9175 0001232 91.5411 268.5722 15.08839906244158
Epoch: May 5, 2026 • Age: 14 hours

現在のステータス

高度 540.3 km
速度 7.60 km/s
衛星直下点 24.54°N, 86.86°W
打ち上げ日 Dec 2, 2021
運用期間 4.4 years
タイプ internet

技術仕様

分類 Payload
質量 290.00 kg
乾燥質量 270.00 kg
総質量 290.00 kg
長さ 0.20 m
直径 2.80 m
スパン 9.00 m
形状 Box + pan
製造者 SPXS
バスタイプ Starlink
フェーズステータス In Orbit
所有者/国 SPXS/US

Most Searched